User: anonymous   Login
Location: Fishcreek Rd Observing Site
(41.1865°N, 81.4271°W)
Time: 04:35:48
(UTC-04:00)
Language:

Iridium 75 - Orbit

View from above orbital plane
View from above orbital plane
View from above satellite
View from above satellite

Ground track
Ground track

The orbit data is extracted from the following two-line orbital elements,

1 25346U 98032E   17266.22573399  .00000189  00000-0  60494-4 0  9999
2 25346  86.4022 183.1609 0002218  81.9710 278.1737 14.34224245 13720
Epoch (UTC): 23 September 2017 05:25:03
Eccentricity: 0.0002218
inclination: 86.4022°
perigee height: 776 km
apogee height: 779 km
right ascension of ascending node: 183.1609°
argument of perigee: 81.9710°
revolutions per day: 14.34224245
mean anomaly at epoch: 278.1737°
orbit number at epoch: 1372

The dashed part of the orbit path shows where the satellite is in the earth's shadow,  

DLR